x

St. Joseph, Mi (sjom4) Weather Station

9:21pm - Fri 19th Dec 2014 All times are CST. -6 hours from GMT.

  • Wind
  • Air Temp 31°f
  • Sea Pressure 1025.4mb
  • St. Joseph, Mi
  • St. Joseph, Mi

More Historic Weather Station data

Upgrade to MSW Pro to gain access to the past 30 days of data for over 8000 Wavebouys and Weather Stations around the globe.

Join Pro

Comparision Forecast

View Surf forecast
   
Fri 12/19 9:21pm  -  3 mph 1025.4mb 31f
9:00pm  -  2 mph 1025.4mb 31f
8:50pm  -  2 mph 1025.1mb 31f
8:40pm  -  3 mph 1025.4mb 31f
8:30pm  -  3 mph 1025.1mb 31f
8:20pm 1 3 mph 1025.1mb 31f
8:10pm 1 2 mph 1025.4mb 31f
8:00pm  -  3 mph 1025.1mb 31f
7:50pm 1 2 mph 1025.7mb 31f
7:40pm  -  3 mph 1025.7mb 31f
7:30pm  -  3 mph 1025.7mb 31f
7:20pm  -  3 mph 1025.7mb 31f
7:10pm 2 5 mph 1025.7mb 32f
7:00pm 2 5 mph 1025.4mb 32f
6:50pm 2 3 mph 1025.4mb 32f
6:40pm  -  5 mph 1025.7mb 32f
6:30pm 3 6 mph 1025.7mb 33f
6:20pm 3 8 mph 1025.7mb 33f
6:10pm 5 8 mph 1026.1mb 33f
6:00pm 5 7 mph 1026.1mb 33f
5:50pm 3 8 mph 1026.8mb 33f
5:40pm 2 5 mph 1027.1mb 33f
5:30pm 5 6 mph 1027.1mb 33f
5:20pm 3 6 mph 1027.4mb 33f
5:19pm 5 9 mph 1026.8mb 33f
5:10pm 2 6 mph 1027.4mb 33f
5:00pm 6 9 mph 1026.8mb 33f
4:50pm 5 8 mph 1026.4mb 33f
4:40pm 5 7 mph 1026.4mb 33f
4:30pm 3 8 mph 1026.1mb 33f
4:20pm 6 8 mph 1026.1mb 33f
4:19pm 6 11 mph 1026.4mb 33f
4:10pm 5 8 mph 1026.4mb 33f
4:00pm 6 10 mph 1026.1mb 33f
3:50pm 6 10 mph 1026.1mb 33f
3:40pm 8 9 mph 1025.7mb 33f
3:30pm 7 11 mph 1025.4mb 33f
3:20pm 8 10 mph 1025.4mb 33f
3:18pm 7 9 mph 1025.4mb 33f
3:10pm 6 9 mph 1025.4mb 33f
3:00pm 7 9 mph 1025.4mb 33f
2:50pm 6 9 mph 1025.1mb 33f
2:40pm 5 6 mph 1025.1mb 33f
2:30pm 5 7 mph 1024.7mb 33f
2:20pm 6 8 mph 1024.4mb 33f
2:18pm 6 8 mph 1024.7mb 33f
2:10pm 6 7 mph 1024.4mb 32f
2:00pm 2 6 mph 1024.7mb 32f
1:50pm 2 5 mph 1024.7mb 32f
1:40pm 3 5 mph 1024.7mb 32f
1:30pm 2 3 mph 1024.4mb 33f
1:20pm  -  5 mph 1024.4mb 32f
1:18pm  -  8 mph 1025.4mb 32f
1:10pm 5 6 mph 1024.4mb 32f
1:00pm 5 7 mph 1024.4mb 32f
12:50pm 6 8 mph 1024.7mb 32f
12:40pm 3 8 mph 1024.7mb 32f
12:30pm 3 7 mph 1025.1mb 32f
12:20pm 5 7 mph 1025.4mb 32f
12:17pm 3 8 mph 1025.1mb 32f
12:10pm 5 6 mph 1025.7mb 32f
12:00pm 2 7 mph 1025.7mb 32f
11:50am 5 8 mph 1026.1mb 32f
11:40am 5 6 mph 1026.1mb 31f
11:30am 5 7 mph 1026.1mb 32f
11:20am 5 7 mph 1026.1mb 31f
11:17am 5 8 mph 1026.1mb 32f
11:10am 5 7 mph 1026.1mb 32f
11:00am 5 8 mph 1026.1mb 32f
10:50am 5 7 mph 1025.7mb 32f
10:40am 5 6 mph 1025.7mb 32f
10:30am 2 5 mph 1025.7mb 32f
10:20am 2 5 mph 1025.7mb 32f
10:16am  -  5 mph 1026.8mb 32f
10:10am  -  2 mph 1026.1mb 32f
10:00am  -  2 mph 1026.1mb 31f
9:50am 1 5 mph 1026.1mb 31f
9:40am 2 5 mph 1026.1mb 31f
9:30am 1 5 mph 1026.1mb 31f
9:20am  -  5 mph 1026.1mb 30f
9:16am  -  5 mph 1025.4mb 31f
9:10am  -  3 mph 1026.1mb 30f
9:00am 1 5 mph 1025.4mb 30f
8:50am 1 3 mph 1025.4mb 30f
8:40am  -  3 mph 1025.4mb 30f
8:30am 1 3 mph 1025.7mb 29f
8:20am 1 3 mph 1026.1mb 29f
8:16am  -  5 mph 1025.4mb 29f
8:10am  -  2 mph 1025.7mb 29f
8:00am  -  2 mph 1025.7mb 29f
7:50am 1 3 mph 1025.1mb 29f
7:40am  -  5 mph 1024.7mb 29f
7:30am 1 5 mph 1025.1mb 29f
7:20am 2 3 mph 1025.4mb 29f
7:15am  -  6 mph 1025.7mb 29f
7:10am 2 5 mph 1025.7mb 29f
7:00am  -  3 mph 1025.7mb 29f
6:50am 2 5 mph 1025.4mb 29f
6:40am 2 6 mph 1025.4mb 29f
6:30am 1 5 mph 1025.1mb 29f
6:20am 2 6 mph 1024.4mb 29f
6:15am 3 17 mph 1024.4mb 29f
6:10am 2 5 mph 1024.4mb 29f
6:00am 2 7 mph 1024.4mb 30f
5:50am 3 6 mph 1024.7mb 30f
5:40am 2 6 mph 1025.1mb 30f
5:30am 2 17 mph 1025.1mb 33f
5:20am 13 17 mph 1024.7mb 33f
5:14am 11 17 mph 1024.4mb 33f
5:10am 11 17 mph 1024.7mb 33f
5:00am 11 15 mph 1024.7mb 33f
4:50am 10 15 mph 1024.4mb 33f
4:40am 11 15 mph 1024.4mb 33f
4:30am 11 16 mph 1024mb 33f
4:20am 13 16 mph 1024mb 33f
4:14am 10 15 mph 1023.7mb 33f
4:10am 10 14 mph 1024.4mb 33f
4:00am 13 15 mph 1024.4mb 33f
3:50am 10 15 mph 1024.4mb 33f
3:40am 9 15 mph 1024.4mb 33f
3:30am 6 13 mph 1024mb 33f
3:20am 11 14 mph 1024mb 33f
3:14am 10 16 mph 1024.4mb 33f
3:10am 11 14 mph 1023.7mb 33f
3:00am 9 13 mph 1024mb 33f
2:50am 9 16 mph 1024.4mb 33f
2:40am 10 14 mph 1024.4mb 33f
2:30am 10 15 mph 1024.7mb 33f
2:20am 11 15 mph 1024.4mb 33f
2:13am 13 15 mph 1024.4mb 33f
2:10am 11 15 mph 1024mb 33f
2:00am 10 14 mph 1023.7mb 33f
1:50am 8 11 mph 1023.4mb 33f
1:40am 9 14 mph 1023.4mb 33f
1:30am 9 11 mph 1024mb 33f
1:20am 8 13 mph 1023.7mb 32f
1:13am 7 14 mph 1024mb 33f
1:10am 7 11 mph 1024mb 33f
1:00am 10 14 mph 1024.4mb 33f
12:50am 10 14 mph 1024mb 33f
12:40am 11 14 mph 1024mb 34f
12:30am 9 11 mph 1023.7mb 33f
12:20am 6 8 mph 1023.4mb 32f
12:12am 7 15 mph 1023.7mb 32f
12:10am 6 9 mph 1023.4mb 32f
12:00am 8 14 mph 1023.4mb 32f
Thu 12/18 11:50pm 8 11 mph 1023.7mb 33f
11:40pm 9 14 mph 1024mb 33f
11:30pm 10 14 mph 1024mb 34f
11:20pm 11 17 mph 1024mb 34f
11:12pm 15 17 mph 1023.4mb 34f
11:10pm 14 16 mph 1024mb 34f
11:00pm 11 14 mph 1023.7mb 34f
10:50pm 9 14 mph 1023.4mb 33f
10:40pm 11 14 mph 1023.7mb 33f
10:30pm 5 14 mph 1023.4mb 32f
10:20pm 7 10 mph 1023.4mb 32f
10:12pm 5 20 mph 1024mb 32f
10:10pm 6 14 mph 1023.4mb 32f
10:00pm 11 16 mph 1023.4mb 32f
9:50pm 15 20 mph 1023.7mb 33f
9:40pm 14 17 mph 1023.7mb 33f
9:30pm 14 17 mph 1023.7mb 34f
9:20pm 10 13 mph 1023.7mb 33f
9:11pm 7 18 mph 1023.7mb 33f
9:10pm 7 15 mph 1024mb 33f
9:00pm 10 16 mph 1024mb 32f
8:50pm 15 17 mph 1023.7mb 32f
8:40pm 14 18 mph 1023.7mb 32f
8:30pm 15 17 mph 1023mb 32f
8:20pm 15 17 mph 1023.4mb 33f
8:11pm 16 20 mph 1023mb 33f
8:10pm 16 18 mph 1023.7mb 33f
8:00pm 14 17 mph 1024mb 33f
7:50pm 14 18 mph 1024mb 32f
7:40pm 15 20 mph 1024mb 32f
7:30pm 17 20 mph 1023.7mb 32f
7:20pm 15 18 mph 1023.7mb 31f
7:10pm 15 20 mph 1024mb 31f
7:00pm 14 18 mph 1023.4mb 31f
6:50pm 15 20 mph 1023.4mb 31f
6:40pm 15 17 mph 1023.4mb 31f
6:30pm 15 18 mph 1023.4mb 31f
6:20pm 15 17 mph 1024mb 31f
6:10pm 13 18 mph 1023.7mb 31f
6:00pm 13 16 mph 1024mb 31f
5:50pm 13 16 mph 1024.4mb 31f
5:40pm 13 16 mph 1023.7mb 31f
5:30pm 13 16 mph 1023mb 31f
5:20pm 13 18 mph 1023mb 31f
5:10pm 13 17 mph 1023.7mb 31f
5:09pm 13 23 mph 1023.4mb 31f
5:00pm 11 17 mph 1024mb 30f
4:50pm 13 15 mph 1024mb 30f
4:40pm 13 20 mph 1024mb 30f
4:30pm 15 17 mph 1023mb 30f
4:20pm 14 23 mph 1023.4mb 30f
4:10pm 14 16 mph 1023.7mb 30f
4:09pm 14 17 mph 1023.7mb 30f
4:00pm 11 16 mph 1024mb 30f
3:50pm 13 15 mph 1024mb 30f
3:40pm 13 17 mph 1024mb 30f
3:30pm 14 16 mph 1023.7mb 30f
3:20pm 13 17 mph 1023.4mb 30f
3:10pm 14 17 mph 1023.7mb 30f
3:09pm 14 17 mph 1024mb 30f
3:00pm 13 16 mph 1024mb 30f
2:50pm 13 16 mph 1024mb 30f
2:40pm 10 14 mph 1023.7mb 30f
2:30pm 11 15 mph 1023mb 30f
2:20pm 11 14 mph 1023mb 30f
2:10pm 9 13 mph 1023mb 30f
2:08pm 10 15 mph 1023.7mb 30f
2:00pm 10 13 mph 1023mb 30f
1:50pm 11 13 mph 1023.4mb 30f
1:40pm 10 15 mph 1023.7mb 30f
1:30pm 10 15 mph 1023.7mb 30f
1:20pm 10 14 mph 1023.7mb 30f
1:10pm 9 13 mph 1024mb 30f
1:08pm 9 16 mph 1024mb 30f
1:00pm 11 15 mph 1024.4mb 30f
12:50pm 11 15 mph 1024.4mb 30f
12:40pm 11 16 mph 1024mb 30f
12:30pm 13 15 mph 1023.7mb 30f
12:20pm 13 15 mph 1023.7mb 30f
12:10pm 13 16 mph 1024.4mb 30f
12:07pm 13 16 mph 1024.4mb 30f
12:00pm 14 15 mph 1024.4mb 30f
11:50am 13 16 mph 1024.7mb 30f
11:40am 13 16 mph 1024.7mb 30f
11:30am 11 14 mph 1024.4mb 30f
11:20am 10 13 mph 1024.4mb 30f
11:10am 11 15 mph 1024.7mb 30f
11:07am 10 14 mph 1024.7mb 30f
11:00am 10 13 mph 1025.4mb 30f
10:50am 8 13 mph 1025.7mb 30f
10:40am 11 14 mph 1025.7mb 30f
10:30am 10 14 mph 1025.4mb 30f
10:20am 11 14 mph 1025.4mb 30f
10:10am 9 13 mph 1025.4mb 30f
10:07am 9 14 mph 1025.4mb 30f
10:00am 10 11 mph 1025.4mb 30f
9:50am 9 14 mph 1026.1mb 30f
9:40am 9 14 mph 1026.1mb 30f
9:30am 11 14 mph 1026.1mb 30f
9:20am 10 14 mph 1025.7mb 30f
9:10am 11 13 mph 1025.4mb 30f
9:06am 8 17 mph 1026.1mb 30f
9:00am 7 13 mph 1025.1mb 30f
8:50am 8 11 mph 1025.1mb 30f
8:40am 9 17 mph 1024.7mb 30f
8:30am 6 7 mph 1025.1mb 30f
8:20am 3 7 mph 1025.4mb 30f
8:10am 2 6 mph 1025.7mb 29f
8:06am 3 7 mph 1024.7mb 30f
8:00am 3 7 mph 1025.7mb 30f
7:50am 3 6 mph 1025.1mb 29f
7:40am  -  3 mph 1024.7mb 29f
7:30am  -  2 mph 1025.1mb 29f
7:20am  -  3 mph 1025.4mb 29f
7:10am 3 7 mph 1025.4mb 29f
7:05am 2 9 mph 1024.7mb 29f
7:00am 3 7 mph 1024.7mb 29f
6:50am 2 7 mph 1024.4mb 29f
6:40am 3 5 mph 1024.7mb 29f
6:30am 6 9 mph 1025.4mb 29f
6:20am  -  8 mph 1025.1mb 29f
6:10am 6 11 mph 1024mb 29f
6:05am 7 11 mph 1024.4mb 29f
6:00am 2 6 mph 1024mb 29f
5:50am 3 8 mph 1024mb 29f
5:40am 3 8 mph 1024.4mb 29f
5:30am 6 10 mph 1024.7mb 29f
5:20am 3 6 mph 1024.4mb 29f
5:10am 6 11 mph 1025.1mb 29f
5:05am 10 11 mph 1024.7mb 29f
5:00am 5 7 mph 1025.1mb 29f
4:50am 7 9 mph 1024.7mb 29f
4:40am 6 10 mph 1024.7mb 29f
4:30am 5 10 mph 1024.4mb 29f
4:20am 8 10 mph 1024.4mb 30f
4:10am 8 11 mph 1024.4mb 29f
4:04am 6 10 mph 1024.7mb 29f
4:00am 7 9 mph 1024.4mb 29f
3:50am 7 9 mph 1024.7mb 30f
3:40am 8 10 mph 1025.1mb 29f
3:30am 5 9 mph 1025.1mb 29f
3:20am 5 9 mph 1025.4mb 29f
3:10am 8 10 mph 1024.7mb 29f
3:04am 8 11 mph 1024.7mb 30f
3:00am 7 9 mph 1024.7mb 30f
2:50am 6 10 mph 1024.7mb 30f
2:40am 5 11 mph 1024.7mb 29f
2:30am 7 11 mph 1025.1mb 29f
2:20am 7 11 mph 1025.4mb 29f
2:10am 5 9 mph 1025.4mb 29f
2:03am 7 11 mph 1025.4mb 29f
2:00am 7 10 mph 1025.4mb 29f
1:50am 8 11 mph 1025.1mb 29f
1:40am 7 10 mph 1024.7mb 30f
1:30am 8 11 mph 1024.7mb 30f
1:20am 7 11 mph 1024.7mb 29f
1:10am 9 11 mph 1025.1mb 29f
1:03am 10 17 mph 1024.4mb 30f
1:00am 8 13 mph 1025.1mb 30f
12:50am 9 17 mph 1025.1mb 30f
12:40am 10 11 mph 1025.1mb 30f
12:30am 10 13 mph 1024.7mb 30f
12:20am 8 14 mph 1024.7mb 30f
12:10am 8 13 mph 1025.4mb 30f
12:03am 10 20 mph 1024.7mb 30f
12:00am 9 13 mph 1025.4mb 30f
Wed 12/17 11:50pm 9 14 mph 1025.4mb 29f
11:40pm 13 20 mph 1025.1mb 30f
11:30pm 9 13 mph 1024.4mb 30f
11:20pm 9 15 mph 1024.4mb 29f
11:10pm 11 15 mph 1024.7mb 30f
11:02pm 11 18 mph 1025.4mb 30f
11:00pm 9 15 mph 1025.4mb 30f
10:50pm 10 16 mph 1025.1mb 30f
10:40pm 11 15 mph 1024.7mb 30f
10:30pm 14 16 mph 1024.4mb 30f
10:20pm 14 18 mph 1024.4mb 30f
10:10pm 13 17 mph 1025.1mb 30f
10:02pm 13 21 mph 1025.1mb 30f
10:00pm 14 17 mph 1025.1mb 30f
9:50pm 15 18 mph 1024.7mb 30f
9:40pm 11 16 mph 1024mb 30f
9:30pm 11 21 mph 1024mb 30f
9:20pm 14 16 mph 1024mb 30f
9:10pm 15 18 mph 1024.7mb 30f
9:01pm 14 22 mph 1024.4mb 30f
9:00pm 14 18 mph 1024.7mb 30f
8:50pm 15 20 mph 1024.7mb 30f
8:40pm 14 20 mph 1024.7mb 30f
8:30pm 10 20 mph 1024.7mb 30f
8:20pm 15 22 mph 1024.7mb 31f
8:10pm 16 18 mph 1024.4mb 31f
8:01pm 13 18 mph 1024.7mb 30f
8:00pm 13 17 mph 1024.4mb 30f
7:50pm 13 18 mph 1024mb 30f
7:40pm 14 17 mph 1023.7mb 30f
7:30pm 13 17 mph 1023.7mb 30f
7:20pm 13 18 mph 1023.7mb 30f
7:10pm 13 18 mph 1023.7mb 30f
7:01pm 15 20 mph 1024mb 30f
7:00pm 15 18 mph 1023.7mb 30f
6:50pm 16 20 mph 1024mb 30f
6:40pm 14 20 mph 1024mb 30f
6:30pm 14 17 mph 1024mb 30f
6:20pm 15 18 mph 1024.4mb 30f
6:10pm 16 20 mph 1024.4mb 30f
6:00pm 15 20 mph 1024.4mb 30f
5:50pm 14 21 mph 1024.4mb 30f
5:40pm 17 21 mph 1024.4mb 31f
5:30pm 16 21 mph 1024mb 30f
5:20pm 16 18 mph 1024mb 30f
5:10pm 16 21 mph 1023.7mb 30f
5:00pm 17 23 mph 1023.4mb 30f
4:50pm 17 21 mph 1023mb 30f
4:40pm 17 21 mph 1023mb 30f
4:30pm 14 21 mph 1023mb 30f
4:20pm 16 22 mph 1023mb 30f
4:10pm 18 22 mph 1023mb 30f
4:00pm 14 18 mph 1022.7mb 30f
3:59pm 14 23 mph 1023.4mb 30f
3:50pm 14 18 mph 1023mb 30f
3:40pm 15 21 mph 1023.4mb 30f
3:30pm 15 23 mph 1023.4mb 30f
3:20pm 17 21 mph 1023mb 30f
3:10pm 18 23 mph 1023mb 30f
3:00pm 15 21 mph 1023mb 30f
2:59pm 13 23 mph 1022.4mb 30f
2:50pm 17 23 mph 1022.7mb 30f
2:40pm 15 21 mph 1022.7mb 30f
2:30pm 15 21 mph 1022.4mb 30f
2:20pm 17 23 mph 1022mb 30f
2:10pm 16 23 mph 1022mb 30f
2:00pm 17 25 mph 1022mb 30f
1:58pm 16 25 mph 1021.7mb 30f
1:50pm 16 22 mph 1021.7mb 30f
1:40pm 16 21 mph 1021.7mb 30f
1:30pm 17 21 mph 1022mb 30f
1:20pm 16 22 mph 1022mb 30f
1:10pm 15 23 mph 1022.4mb 30f
1:00pm 17 22 mph 1022.4mb 30f
12:58pm 15 23 mph 1022.7mb 30f
12:50pm 16 22 mph 1022.7mb 30f
12:40pm 15 22 mph 1022.7mb 29f
12:30pm 20 23 mph 1022.7mb 30f
12:20pm 17 22 mph 1022.7mb 30f
12:10pm 16 21 mph 1022.4mb 30f
12:00pm 17 23 mph 1022.7mb 30f
11:58am 20 23 mph 1022.4mb 30f
11:50am 15 23 mph 1022.4mb 30f
11:40am 13 23 mph 1022.4mb 30f
11:30am 14 21 mph 1022.4mb 30f
11:20am 15 22 mph 1022.7mb 30f
11:10am 14 20 mph 1023mb 30f
11:00am 11 18 mph 1023.4mb 30f
10:57am 11 21 mph 1023mb 30f
10:50am 16 21 mph 1023.4mb 30f
10:40am 15 20 mph 1023.4mb 30f
10:30am 15 21 mph 1023mb 30f
10:20am 16 21 mph 1023mb 31f
10:10am 16 21 mph 1022.7mb 30f
10:00am 14 23 mph 1023mb 30f
9:57am 18 24 mph 1023.7mb 30f
9:50am 16 21 mph 1022.7mb 30f
9:40am 14 22 mph 1023mb 29f
9:30am 16 20 mph 1023.4mb 30f
9:20am 15 24 mph 1023.4mb 29f
9:10am 14 23 mph 1023.4mb 29f
9:00am 15 22 mph 1023mb 29f
8:56am 14 25 mph 1023.4mb 29f
8:50am 15 25 mph 1022.7mb 29f
8:40am 14 22 mph 1023mb 30f
8:30am 17 22 mph 1022.7mb 30f
8:20am 16 21 mph 1022.4mb 30f
8:10am 16 23 mph 1022.4mb 30f
8:00am 18 22 mph 1022.4mb 30f
7:56am 16 23 mph 1022.7mb 30f
7:50am 20 23 mph 1022.7mb 30f
7:40am 16 21 mph 1022.7mb 30f
7:30am 14 22 mph 1022.7mb 30f
7:20am 15 23 mph 1022.7mb 30f
7:10am 17 20 mph 1022.7mb 30f
7:00am 16 22 mph 1022.4mb 30f
6:56am 13 24 mph 1022mb 30f
6:50am 16 22 mph 1021.7mb 30f
6:40am 16 22 mph 1021.7mb 30f
6:30am 18 24 mph 1022mb 30f
6:20am 17 24 mph 1022.4mb 30f
6:10am 18 23 mph 1022.7mb 30f
6:00am 18 23 mph 1022.7mb 30f
5:55am 17 25 mph 1022mb 31f
5:50am 18 24 mph 1022.4mb 31f
5:40am 20 23 mph 1022.4mb 31f
5:30am 18 24 mph 1022mb 30f
5:20am 18 24 mph 1022mb 31f
5:10am 17 23 mph 1021.3mb 31f
5:00am 21 25 mph 1021.3mb 31f
4:55am 18 28 mph 1021.7mb 31f
4:50am 20 25 mph 1021.3mb 31f
4:40am 21 25 mph 1021.3mb 31f
4:30am 16 24 mph 1021.7mb 31f
4:20am 20 28 mph 1021.7mb 31f
4:10am 17 23 mph 1021.3mb 31f
4:00am 20 25 mph 1021.3mb 31f
3:54am 21 28 mph 1021.3mb 32f
3:50am 20 25 mph 1021.3mb 32f
3:40am 17 25 mph 1020.7mb 32f
3:30am 16 25 mph 1020.3mb 32f
3:20am 16 24 mph 1020.3mb 32f
3:10am 21 24 mph 1020mb 32f
3:00am 20 28 mph 1020.3mb 32f
2:54am 17 26 mph 1020mb 32f
2:50am 20 25 mph 1020.7mb 32f
2:40am 21 24 mph 1020mb 33f
2:30am 16 25 mph 1020.3mb 33f
2:20am 20 25 mph 1020.3mb 33f
2:10am 21 26 mph 1020.7mb 33f
2:00am 22 25 mph 1020.7mb 33f
1:54am 21 26 mph 1019.6mb 34f
1:50am 20 26 mph 1020.7mb 34f
1:40am 21 25 mph 1020.3mb 34f
1:30am 21 25 mph 1019.6mb 34f
1:20am 21 25 mph 1019.6mb 34f
1:10am 18 25 mph 1019mb 34f
1:00am 22 28 mph 1019mb 34f
12:53am 23 28 mph 1019.6mb 34f
12:50am 20 26 mph 1018.6mb 34f
12:40am 21 26 mph 1019mb 34f
12:30am 21 25 mph 1018.6mb 35f
12:20am 21 24 mph 1018.3mb 35f
12:10am 21 26 mph 1018.3mb 35f
12:00am 20 26 mph 1018.3mb 35f
Tue 12/16 11:53pm 21 28 mph 1019mb 35f
11:50pm 21 26 mph 1018.3mb 35f
11:40pm 21 28 mph 1018.6mb 35f
11:30pm 20 26 mph 1019mb 35f
11:20pm 23 28 mph 1019mb 35f
11:10pm 18 25 mph 1019mb 36f
11:00pm 21 26 mph 1019mb 36f
10:52pm 21 29 mph 1018.3mb 36f
10:50pm 20 26 mph 1018.6mb 36f
10:40pm 21 29 mph 1018.6mb 36f
10:30pm 21 26 mph 1018.3mb 36f
10:20pm 21 24 mph 1017.9mb 36f
10:10pm 18 24 mph 1017.9mb 36f
10:00pm 21 26 mph 1017.6mb 36f
9:52pm 20 29 mph 1018.3mb 36f
9:50pm 21 24 mph 1017.6mb 36f
9:40pm 21 25 mph 1017.9mb 36f
9:30pm 22 29 mph 1018.3mb 35f
9:20pm 22 26 mph 1017.9mb 35f
9:10pm 22 26 mph 1017.9mb 35f
9:00pm 20 25 mph 1017.9mb 35f
8:52pm 22 25 mph 1017.6mb 36f
8:50pm 21 24 mph 1017.9mb 36f
8:40pm 17 23 mph 1017.6mb 36f
8:30pm 18 24 mph 1017.6mb 36f
8:20pm 18 24 mph 1017.3mb 36f
8:10pm 21 25 mph 1016.9mb 36f
8:00pm 21 25 mph 1016.9mb 36f
7:51pm 21 28 mph 1016.6mb 37f
7:50pm 21 26 mph 1016.9mb 37f
7:40pm 21 26 mph 1016.6mb 37f
7:30pm 21 26 mph 1016.6mb 37f
7:20pm 22 26 mph 1016.6mb 37f
7:10pm 20 28 mph 1016.3mb 37f
7:00pm 18 25 mph 1016.3mb 37f
6:51pm 18 28 mph 1015.9mb 37f
6:50pm 18 28 mph 1015.6mb 37f
6:40pm 20 26 mph 1015.9mb 37f
6:30pm 23 28 mph 1015.6mb 37f
6:20pm 22 26 mph 1015.2mb 38f
6:10pm 22 25 mph 1014.9mb 38f
6:00pm 20 25 mph 1014.6mb 39f
5:50pm 18 25 mph 1014.6mb 39f
5:40pm 17 24 mph 1013.9mb 40f
5:30pm 16 22 mph 1013.5mb 40f
5:20pm 16 21 mph 1013.5mb 40f
5:10pm 16 24 mph 1013.5mb 40f
5:00pm 17 21 mph 1013.2mb 40f
4:50pm 14 17 mph 1012.9mb 40f
4:40pm 13 16 mph 1012.5mb 40f
4:30pm 11 15 mph 1012.2mb 40f
4:20pm 11 15 mph 1012.2mb 40f
4:10pm 11 17 mph 1011.9mb 40f
4:00pm 13 16 mph 1011.5mb 40f
3:50pm 11 22 mph 1012.2mb 40f
3:40pm 14 20 mph 1011.2mb 40f
3:30pm 16 21 mph 1011.5mb 40f
3:20pm 13 18 mph 1011.2mb 40f
3:10pm 18 22 mph 1011.2mb 41f
3:00pm 14 22 mph 1011.2mb 41f
2:50pm 15 20 mph 1010.8mb 41f
2:49pm 15 20 mph 1010.2mb 41f
2:40pm 11 17 mph 1010.5mb 41f
2:30pm 11 15 mph 1010.2mb 42f
2:20pm 11 16 mph 1009.8mb 42f
2:10pm 13 15 mph 1009.5mb 42f
2:00pm 13 17 mph 1009.1mb 42f
1:50pm 14 16 mph 1008.8mb 42f
1:49pm 13 16 mph 1009.1mb 42f
1:40pm 13 14 mph 1008.5mb 42f
1:30pm 10 14 mph 1008.1mb 42f
1:20pm 11 15 mph 1008.1mb 42f
1:10pm 10 13 mph 1007.8mb 42f
1:00pm 9 11 mph 1007.8mb 41f
12:50pm 9 11 mph 1007.8mb 41f
12:48pm 9 11 mph 1008.5mb 41f
12:40pm 8 10 mph 1008.1mb 41f
12:30pm 8 10 mph 1008.5mb 41f
12:20pm 9 10 mph 1008.5mb 41f
12:10pm 8 10 mph 1008.1mb 41f
12:00pm 8 10 mph 1008.1mb 41f
11:50am 9 10 mph 1008.1mb 41f
11:48am 8 10 mph 1007.5mb 41f
11:40am 8 9 mph 1008.1mb 41f
11:30am 7 9 mph 1008.1mb 41f
11:20am 7 8 mph 1007.8mb 41f
11:10am 7 8 mph 1007.8mb 41f
11:00am 7
mph
1007.8mb 41f
10:50am 7 8 mph 1007.8mb 41f
10:48am 7 8 mph 1007.8mb 41f
10:40am 6 7 mph 1007.5mb 41f
10:30am 6 7 mph 1007.5mb 41f
10:20am 6 7 mph 1007.5mb 41f
10:10am 5 7 mph 1007.5mb 41f
10:00am 5
mph
1007.1mb 41f
9:50am 5 6 mph 1007.1mb 41f
9:47am 5 9 mph 1007.1mb 41f
9:40am 5 7 mph 1006.8mb 41f
9:30am 6 7 mph 1006.8mb 42f
9:20am 6 9 mph 1006.4mb 42f
9:10am 7 9 mph 1006.4mb 42f
9:00am 8 9 mph 1006.4mb 42f
8:50am 8 10 mph 1006.1mb 42f
8:47am 8 10 mph 1006.1mb 42f
8:40am 8 10 mph 1006.1mb 42f
8:30am 8 10 mph 1006.1mb 42f
8:20am 8 10 mph 1005.8mb 42f
8:10am 8 10 mph 1005.8mb 42f
8:00am 8 10 mph 1005.8mb 42f
7:50am 8 9 mph 1005.8mb 42f
7:46am 8 9 mph 1005.4mb 42f
7:40am 7 8 mph 1005.4mb 42f
7:30am 6 7 mph 1005.4mb 42f
7:20am 5 7 mph 1005.4mb 42f
7:10am 6 7 mph 1005.4mb 42f
7:00am 5 6 mph 1005.4mb 42f
6:50am 5 6 mph 1005.4mb 43f
6:46am 5 7 mph 1005.1mb 43f
6:40am 5 6 mph 1005.4mb 44f
6:30am 5 6 mph 1005.4mb 44f
6:20am 3 7 mph 1005.4mb 44f
6:10am 2 6 mph 1005.1mb 44f
6:00am 5 7 mph 1005.1mb 44f
5:50am 2 7 mph 1005.1mb 44f
5:46am 5 8 mph 1004.4mb 44f
5:40am 2 6 mph 1004.7mb 44f
5:30am 2 7 mph 1004.7mb 44f
5:20am 3 8 mph 1004.4mb 44f
5:10am 3 7 mph 1004.4mb 44f
5:00am 3 6 mph 1004.1mb 44f
4:50am 2 7 mph 1004.1mb 44f
4:45am 2 7 mph 1004.7mb 44f
4:40am 3 6 mph 1004.1mb 44f
4:30am 2 7 mph 1004.1mb 44f